GPS BIII-7 (PRN 01) (62339 NORAD) Tracking and Keplerian Element Data

This shows tracking and keplerian element data for the satellite.

Feedback or suggestion? Click here.




ElementValue
Catalog62339
NameGPS BIII-7 (PRN 01)
Epoch Orbit125
Epoch Day34.53588213
Epoch Year2025
RAAN354.3692
Inclination54.9965
Eccentricity0.0004527
Argument of Perigee300.5406
Mean Anonmoly256.7162
Mean Motion2.00555408
Decay Rate-8.1E-07
L11 62339U 24242A 25034.53588213 -.00000081 00000+0 00000+0 0 9994
L22 62339 54.9965 354.3692 0004527 300.5406 256.7162 2.00555408 1257



Live tracking and technical data element details for GPS BIII-7 (PRN 01) (NORAD 62339). GPS BIII-7 (PRN 01) can be tracked NOW for your location showing map with azimuth and elevation plus other details from your city location.







IsCatalogInMostPopularTable: catalog: 62339, numindb: 9
Update: records affected: 1



GetName: 62339 GPS BIII-7 (PRN 01)

Hit Count: updated at: Mon, 19 May 2025 02:28:35 GMT